Date String (YYYY-MM-DD hh:mm:ss) UTC,Instrument flags,absolute air pressure of the measurement (hPa),sample flow rate (lpm),inlet stack bypass flow (lpm),air temperature of the measurement (°C),ambient temperature measured by the external sensor (°C),aerosol sample conditioner tube jacket temperature (°C),OPC LED temperature (°C),internal box temperature (°C),relative humidity of the measurement (%),span deviation,mass concentration of particles derived from Lorenz-Mie calculation of OPC scattering (μg/m³),mass concentration of particles derived from Lorenz-Mie calculation of OPC scattering (μg/m³),mass concentration of particles derived from Lorenz-Mie calculation of OPC scattering (μg/m³)
DateTimeUTC,F1_M11,P_M11,Q1_M11,Q2_M11,T1_M11,T2_M11,T3_M11,T4_M11,T5_M11,U1_M11,ZSPAN_M11,X0_M11,X2_M11,X1_M11
2023-06-11 18:00:00,SystemResetWarning,0832.7,5.02,000.00,030.0,026.9,000.0,038.7,031.4,26.8,0000.0,0008.18,0004.56,0004.21
2023-06-11 18:01:00,SystemResetWarning,0832.7,5.00,000.00,030.0,027.3,000.0,038.6,031.4,26.7,0000.0,0008.21,0004.62,0004.27
2023-06-11 18:02:00,SystemResetWarning,0832.7,4.99,000.00,030.0,027.5,000.0,038.6,031.4,26.7,0000.0,0008.20,0004.66,0004.32
2023-06-11 18:03:00,SystemResetWarning,0832.6,4.99,000.00,030.0,027.7,000.0,038.6,031.4,26.9,0000.0,0007.69,0004.71,0004.39
2023-06-11 18:04:00,SystemResetWarning,0832.6,5.01,000.00,030.0,027.9,000.0,038.6,031.4,26.8,0000.0,0007.41,0004.76,0004.44
2023-06-11 18:05:00,SystemResetWarning,0832.6,5.01,000.00,030.0,028.0,000.0,038.6,031.5,26.9,0000.0,0007.48,0004.83,0004.50
2023-06-11 18:06:00,SystemResetWarning,0832.7,4.98,000.00,030.0,028.1,000.0,038.6,031.5,27.0,0000.0,0007.56,0004.85,0004.52
2023-06-11 18:07:00,SystemResetWarning,0832.7,4.99,000.00,030.0,028.2,000.0,038.6,031.5,26.9,0000.0,0007.62,0004.85,0004.53
2023-06-11 18:08:00,SystemResetWarning,0832.6,5.02,000.00,030.0,028.3,000.0,038.6,031.5,26.7,0000.0,0007.63,0004.86,0004.54
2023-06-11 18:09:00,SystemResetWarning,0832.7,5.01,000.00,030.0,028.4,000.0,038.6,031.6,26.8,0000.0,0007.64,0004.85,0004.55
2023-06-11 18:10:00,SystemResetWarning,0832.6,4.99,000.00,030.0,028.4,000.0,038.6,031.6,27.0,0000.0,0008.52,0004.82,0004.56
2023-06-11 18:11:00,SystemResetWarning,0832.7,5.00,000.00,030.1,028.5,000.0,038.6,031.6,27.0,0000.0,0008.89,0004.80,0004.55
2023-06-11 18:12:00,SystemResetWarning,0832.7,5.00,000.00,030.1,028.5,000.0,038.6,031.6,27.3,0000.0,0008.83,0004.77,0004.52
2023-06-11 18:13:00,SystemResetWarning,0832.6,5.00,000.00,030.1,028.6,000.0,038.6,031.6,27.3,0000.0,0008.93,0004.76,0004.49
2023-06-11 18:14:00,SystemResetWarning,0832.7,5.00,000.00,030.1,028.6,000.0,038.6,031.7,27.7,0000.0,0008.92,0004.72,0004.44
2023-06-11 18:15:00,SystemResetWarning,0832.7,4.99,000.00,030.1,028.6,000.0,038.6,031.7,27.7,-001.0,0008.84,0004.67,0004.40
2023-06-11 18:16:00,SystemResetWarning,0832.7,5.00,000.00,030.1,028.7,000.0,038.6,031.7,27.8,-001.1,0008.82,0004.63,0004.35
2023-06-11 18:17:00,SystemResetWarning,0832.7,5.01,000.00,030.1,028.7,000.0,038.7,031.7,27.2,-001.5,0008.76,0004.62,0004.34
2023-06-11 18:18:00,SystemResetWarning,0832.7,4.99,000.00,030.2,028.7,000.0,038.7,031.7,27.4,-001.9,0008.66,0004.60,0004.32
2023-06-11 18:19:00,SystemResetWarning,0832.7,5.00,000.00,030.2,028.7,000.0,038.7,031.7,27.1,-001.5,0008.69,0004.58,0004.29
2023-06-11 18:20:00,SystemResetWarning,0832.6,5.00,000.00,030.2,028.7,000.0,038.7,031.7,27.0,-001.1,0008.66,0004.56,0004.28
2023-06-11 18:21:00,SystemResetWarning,0832.7,5.01,000.00,030.2,028.7,000.0,038.7,031.7,26.9,-000.7,0007.77,0004.55,0004.28
2023-06-11 18:22:00,SystemResetWarning,0832.7,5.01,000.00,030.2,028.7,000.0,038.7,031.7,26.9,-000.4,0007.32,0004.59,0004.30
2023-06-11 18:23:00,SystemResetWarning,0832.7,5.00,000.00,030.2,028.7,000.0,038.7,031.7,26.9,-000.1,0007.35,0004.62,0004.33
2023-06-11 18:24:00,SystemResetWarning,0832.6,5.00,000.00,030.2,028.7,000.0,038.7,031.8,27.1,0000.0,0007.35,0004.64,0004.35
2023-06-11 18:25:00,SystemResetWarning,0832.6,5.00,000.00,030.2,028.7,000.0,038.7,031.8,27.3,0000.0,0007.36,0004.65,0004.38
2023-06-11 18:26:00,SystemResetWarning,0832.7,5.00,000.00,030.3,028.8,000.0,038.7,031.8,27.6,0000.0,0007.35,0004.64,0004.38
2023-06-11 18:27:00,SystemResetWarning,0832.7,5.01,000.00,030.3,028.8,000.0,038.8,031.8,27.3,0000.0,0007.78,0004.66,0004.39
2023-06-11 18:28:00,SystemResetWarning,0832.7,4.98,000.00,030.3,027.8,000.0,038.7,031.9,27.2,0000.0,0008.05,0004.67,0004.39
2023-06-11 18:29:00,SystemResetWarning,0832.6,5.00,000.00,030.3,025.8,000.0,038.7,031.8,27.0,0000.0,0008.15,0004.67,0004.39
2023-06-11 18:30:00,SystemResetWarning,0832.6,5.00,000.00,030.3,025.4,000.0,038.6,031.7,27.2,0000.0,0008.44,0004.67,0004.39
2023-06-11 18:31:00,SystemResetWarning,0832.6,5.01,000.00,030.1,025.7,000.0,038.6,031.4,27.4,0000.0,0009.07,0004.67,0004.38
2023-06-11 18:32:00,SystemResetWarning,0832.6,5.01,000.00,030.0,026.0,000.0,038.6,031.3,27.4,0000.0,0009.08,0004.66,0004.35
2023-06-11 18:33:00,SystemResetWarning,0832.5,4.99,000.00,030.0,026.4,000.0,038.6,031.3,27.6,0000.0,0008.95,0004.61,0004.33
2023-06-11 18:34:00,SystemResetWarning,0832.5,5.00,000.00,029.9,026.8,000.0,038.6,031.3,27.6,0000.0,0008.87,0004.57,0004.30
2023-06-11 18:35:00,SystemResetWarning,0832.5,5.01,000.00,029.9,027.1,000.0,038.6,031.3,27.8,0000.0,0008.77,0004.55,0004.28
2023-06-11 18:36:00,SystemResetWarning,0832.6,5.00,000.00,029.9,027.4,000.0,038.6,031.3,27.6,0000.0,0008.70,0004.53,0004.25
2023-06-11 18:37:00,SystemResetWarning,0832.5,5.00,000.00,029.9,027.6,000.0,038.5,031.3,27.0,0000.0,0008.76,0004.55,0004.25
2023-06-11 18:38:00,SystemResetWarning,0832.5,4.99,000.00,029.9,027.8,000.0,038.5,031.3,26.7,0000.0,0008.35,0004.54,0004.24
2023-06-11 18:39:00,SystemResetWarning,0832.5,5.00,000.00,029.9,027.9,000.0,038.5,031.4,26.8,0000.0,0008.09,0004.51,0004.23
2023-06-11 18:40:00,SystemResetWarning,0832.5,5.00,000.00,029.9,028.0,000.0,038.5,031.4,27.6,0000.0,0007.89,0004.46,0004.19
2023-06-11 18:41:00,SystemResetWarning,0832.4,5.01,000.00,029.9,028.1,000.0,038.5,031.4,27.1,0000.0,0007.66,0004.43,0004.14
2023-06-11 18:42:00,SystemResetWarning,0832.5,5.01,000.00,029.9,028.2,000.0,038.5,031.4,27.4,0000.0,0006.67,0004.38,0004.10
2023-06-11 18:43:00,SystemResetWarning,0832.5,4.99,000.00,030.0,028.2,000.0,038.5,031.5,27.3,0000.0,0006.55,0004.33,0004.05
2023-06-11 18:44:00,SystemResetWarning,0832.5,4.99,000.00,030.0,028.3,000.0,038.5,031.5,27.2,0000.0,0006.67,0004.30,0004.01
2023-06-11 18:45:00,SystemResetWarning,0832.4,5.00,000.00,030.0,028.4,000.0,038.5,031.5,26.7,0000.0,0007.41,0004.29,0003.98
2023-06-11 18:46:00,SystemResetWarning,0832.4,5.01,000.00,030.0,028.4,000.0,038.5,031.5,26.6,0000.0,0007.39,0004.26,0003.95
2023-06-11 18:47:00,SystemResetWarning,0832.4,5.00,000.00,030.0,028.4,000.0,038.5,031.5,26.9,0000.0,0007.34,0004.21,0003.91
2023-06-11 18:48:00,SystemResetWarning,0832.4,5.00,000.00,030.0,028.4,000.0,038.5,031.5,27.1,0000.0,0007.47,0004.16,0003.86
2023-06-11 18:49:00,SystemResetWarning,0832.3,5.00,000.00,030.0,028.4,000.0,038.5,031.6,26.9,0000.0,0007.95,0004.12,0003.83
2023-06-11 18:50:00,SystemResetWarning,0832.3,4.99,000.00,030.0,028.5,000.0,038.6,031.6,26.7,0000.0,0008.13,0004.12,0003.81
2023-06-11 18:51:00,SystemResetWarning,0832.3,4.99,000.00,030.0,028.5,000.0,038.6,031.6,26.3,0000.0,0008.16,0004.14,0003.83
2023-06-11 18:52:00,SystemResetWarning,0832.3,5.01,000.00,030.1,028.5,000.0,038.6,031.6,26.4,0000.0,0008.05,0004.14,0003.85
2023-06-11 18:53:00,SystemResetWarning,0832.2,5.00,000.00,030.1,028.6,000.0,038.6,031.6,26.5,0000.0,0008.07,0004.15,0003.85
2023-06-11 18:54:00,SystemResetWarning,0832.3,5.01,000.00,030.1,028.6,000.0,038.6,031.6,26.6,0000.0,0008.12,0004.17,0003.87
2023-06-11 18:55:00,SystemResetWarning,0832.3,4.99,000.00,030.1,028.6,000.0,038.6,031.7,26.7,0000.0,0008.10,0004.17,0003.88
2023-06-11 18:56:00,SystemResetWarning,0832.3,4.99,000.00,030.1,028.7,000.0,038.6,031.7,26.7,0000.0,0007.60,0004.16,0003.88
2023-06-11 18:57:00,SystemResetWarning,0832.3,5.01,000.00,030.1,028.7,000.0,038.6,031.7,26.9,0000.0,0007.61,0004.17,0003.89
2023-06-11 18:58:00,SystemResetWarning,0832.3,5.00,000.00,030.2,028.7,000.0,038.6,031.7,26.8,0000.0,0007.62,0004.18,0003.90
2023-06-11 18:59:00,SystemResetWarning,0832.3,4.99,000.00,030.2,028.4,000.0,038.6,031.7,26.4,0000.0,0007.60,0004.20,0003.93
